Flag for Germany Weather past 2 weeks in Springe, Lower Saxony, Germany

Now
39 °F

Chilly.


Feels Like: 32 °F
Forecast: 38 / 44 °F
Wind: 13 mph from South

Location: Wunstorf Airport

Current Time: Mar 1, 2015 at 1:43:42 AM

Latest Report: Mar 1, 2015 at 12:20 AM


Visibility: N/A

Pressure: 29.77 "Hg

Humidity: 61%

Dew point: 27 °F

Location of SpringeLocation

Historic Weather in Springe — Graph

°F

Springe temperature yesterday

Maximum temperature yesterday: 46 °F (at 4:20 PM)
Minimum temperature yesterday: 30 °F (at 5:20 AM)
Average temperature yesterday: 37 °F

Past Weeks' High & Low Weather Summary

 TemperatureHumidityPressure
High48 °F (Feb 26, 2:20 PM)100% (Feb 17, 2:20 AM)30.74 "Hg (Feb 17, 2:20 AM)
Low27 °F (Feb 17, 6:20 AM)43% (Feb 28, 4:20 PM)29.30 "Hg (Feb 21, 7:20 AM)
Average38 °F81%29.97 "Hg
* Reported Feb 15 9:20 PM — Mar 1 12:20 AM, Springe, Weather by CustomWeather, © 2015

Note: Actual official high and low records may vary slightly from our data, if they occured in-between our weather recording intervals... More about our weather records

Advertising

Springe weather history for previous 24 hours

 ConditionsComfort  
Time TempWeatherWind HumidityBarometerVisibility
12:20 AM
Sun, Mar 1
39 °FChilly.13 mph61%29.77 "HgN/A
11:20 PM
Sat, Feb 28
37 °FChilly.12 mph65%29.83 "HgN/A
10:20 PM37 °FChilly.9 mph70%29.86 "Hg6 mi
9:20 PM37 °FChilly.10 mph70%29.89 "Hg6 mi
8:20 PM37 °FChilly.12 mph70%29.92 "Hg6 mi
7:20 PM39 °FChilly.12 mph65%29.92 "HgN/A
6:20 PM39 °FChilly.10 mph70%29.95 "HgN/A
5:20 PM43 °FQuite cool.12 mph49%29.95 "HgN/A
4:20 PM46 °FCool.10 mph43%30.01 "HgN/A
3:20 PM45 °FQuite cool.12 mph46%30.01 "HgN/A
2:20 PM45 °FQuite cool.13 mph53%30.04 "HgN/A
1:20 PM43 °FQuite cool.10 mph61%30.07 "HgN/A
12:20 PM41 °FQuite cool.14 mph70%30.07 "Hg6 mi
11:20 AM37 °FChilly.9 mph81%30.09 "Hg4 mi
10:20 AM36 °FChilly.8 mph87%30.12 "Hg4 mi
9:20 AM36 °FChilly.10 mph87%30.12 "HgN/A
8:20 AM32 °FChilly.7 mph93%30.12 "Hg5 mi
7:20 AM30 °FChilly.7 mph93%30.12 "Hg3 mi
6:20 AM32 °FChilly.7 mph93%30.09 "Hg4 mi
5:20 AM30 °FChilly.3 mph100%30.09 "Hg3 mi
4:20 AM32 °FChilly.5 mph93%30.09 "Hg4 mi
3:20 AM32 °FChilly.5 mph93%30.09 "Hg4 mi
2:20 AM32 °FChilly.7 mph93%30.09 "Hg4 mi
1:20 AM34 °FChilly.6 mph87%30.09 "Hg4 mi
Weather by CustomWeather, © 2015

See weather overviewHow to use our weather pages